Location: Newark
(42.6681°N, 4.0833°W)
Time: 21:01:41
(UTC+00:00)

X-37B - Pass Details

Date: 03 October 2020
Orbit: 382 x 392 km, 45.0° (Epoch: 15 October)

Event Time Altitude Azimuth Distance (km) Brightness Sun altitude
Rises 19:43:23 0° 246° (WSW) 2,258 5.3 -20.9°
Reaches altitude 10° 19:45:28 10° 244° (WSW) 1,404 4.1 -21.3°
Enters shadow 19:47:38 40° 234° (SW) 583 1.7 -21.6°
